Time,TemperatureF,DewpointF,PressureIn,WindDirection,WindDirectionDegrees,WindSpeedMPH,WindSpeedGustMPH,Humidity,HourlyPrecipIn,Conditions,Clouds,dailyrainin,SoftwareType,DateUTC
2013-01-14 00:03:00,6.0,0.0,-100.00,WNW,295,9.0,12.0,79,-99.99,,,-99.99,,2013-01-14 06:03:00,
2013-01-14 00:12:00,6.0,0.0,-100.00,WNW,295,9.0,12.0,79,-99.99,,,-99.99,,2013-01-14 06:12:00,
2013-01-14 00:22:00,6.0,0.0,-100.00,WNW,295,9.0,12.0,79,-99.99,,,-99.99,,2013-01-14 06:22:00,
2013-01-14 00:33:00,5.0,0.0,-100.00,WNW,295,11.0,13.0,78,-99.99,,,-99.99,,2013-01-14 06:33:00,
2013-01-14 00:43:00,5.0,0.0,-100.00,WNW,295,11.0,13.0,78,-99.99,,,-99.99,,2013-01-14 06:43:00,
2013-01-14 00:53:00,5.0,0.0,-100.00,WNW,295,11.0,13.0,78,-99.99,,,-99.99,,2013-01-14 06:53:00,
2013-01-14 01:02:00,5.0,-1.0,-100.00,WNW,300,6.0,10.0,77,-99.99,,,-99.99,,2013-01-14 07:02:00,
2013-01-14 01:12:00,5.0,-1.0,-100.00,WNW,300,6.0,10.0,77,-99.99,,,-99.99,,2013-01-14 07:12:00,
2013-01-14 01:22:00,5.0,-1.0,-100.00,WNW,300,6.0,10.0,77,-99.99,,,-99.99,,2013-01-14 07:22:00,
2013-01-14 01:32:00,5.0,-1.0,-100.00,WNW,300,6.0,10.0,77,-99.99,,,-99.99,,2013-01-14 07:32:00,
2013-01-14 02:02:00,4.0,-1.0,-100.00,West,275,3.0,5.0,80,-99.99,,,-99.99,,2013-01-14 08:02:00,
2013-01-14 02:12:00,4.0,-1.0,-100.00,West,275,3.0,5.0,80,-99.99,,,-99.99,,2013-01-14 08:12:00,
2013-01-14 02:22:00,4.0,-1.0,-100.00,West,275,3.0,5.0,80,-99.99,,,-99.99,,2013-01-14 08:22:00,
2013-01-14 02:32:00,3.0,-2.0,-100.00,WSW,255,3.0,4.0,82,-99.99,,,-99.99,,2013-01-14 08:32:00,
2013-01-14 02:43:00,3.0,-2.0,-100.00,WSW,255,3.0,4.0,82,-99.99,,,-99.99,,2013-01-14 08:43:00,
2013-01-14 02:53:00,3.0,-2.0,-100.00,WSW,255,3.0,4.0,82,-99.99,,,-99.99,,2013-01-14 08:53:00,
2013-01-14 03:02:00,-1.0,-4.0,-100.00,West,275,7.0,9.0,84,-99.99,,,-99.99,,2013-01-14 09:02:00,
2013-01-14 03:12:00,-1.0,-4.0,-100.00,West,275,7.0,9.0,84,-99.99,,,-99.99,,2013-01-14 09:12:00,
2013-01-14 03:22:00,-1.0,-4.0,-100.00,West,275,7.0,9.0,84,-99.99,,,-99.99,,2013-01-14 09:22:00,
2013-01-14 03:33:00,-3.0,-6.0,-100.00,West,260,6.0,8.0,85,-99.99,,,-99.99,,2013-01-14 09:33:00,
2013-01-14 03:43:00,-3.0,-6.0,-100.00,West,260,6.0,8.0,85,-99.99,,,-99.99,,2013-01-14 09:43:00,
2013-01-14 03:53:00,-3.0,-6.0,-100.00,West,260,6.0,8.0,85,-99.99,,,-99.99,,2013-01-14 09:53:00,
2013-01-14 04:02:00,-4.0,-8.0,-100.00,WSW,255,6.0,8.0,85,-99.99,,,-99.99,,2013-01-14 10:02:00,
2013-01-14 04:12:00,-4.0,-8.0,-100.00,WSW,255,6.0,8.0,85,-99.99,,,-99.99,,2013-01-14 10:12:00,
2013-01-14 04:22:00,-4.0,-8.0,-100.00,WSW,255,6.0,8.0,85,-99.99,,,-99.99,,2013-01-14 10:22:00,
2013-01-14 04:32:00,-4.0,-7.0,-100.00,SSW,210,3.0,6.0,85,-99.99,,,-99.99,,2013-01-14 10:32:00,
2013-01-14 04:43:00,-4.0,-7.0,-100.00,SSW,210,3.0,6.0,85,-99.99,,,-99.99,,2013-01-14 10:43:00,
2013-01-14 04:53:00,-4.0,-7.0,-100.00,SSW,210,3.0,6.0,85,-99.99,,,-99.99,,2013-01-14 10:53:00,
2013-01-14 05:02:00,-4.0,-7.0,-100.00,SW,215,4.0,6.0,85,-99.99,,,-99.99,,2013-01-14 11:02:00,
2013-01-14 05:12:00,-4.0,-7.0,-100.00,SW,215,4.0,6.0,85,-99.99,,,-99.99,,2013-01-14 11:12:00,
2013-01-14 05:22:00,-4.0,-7.0,-100.00,SW,215,4.0,6.0,85,-99.99,,,-99.99,,2013-01-14 11:22:00,
2013-01-14 05:32:00,-3.0,-6.0,-100.00,SW,225,3.0,7.0,85,-99.99,,,-99.99,,2013-01-14 11:32:00,
2013-01-14 05:43:00,-3.0,-6.0,-100.00,SW,225,3.0,7.0,85,-99.99,,,-99.99,,2013-01-14 11:43:00,
2013-01-14 05:53:00,-3.0,-6.0,-100.00,SW,225,3.0,7.0,85,-99.99,,,-99.99,,2013-01-14 11:53:00,
2013-01-14 06:03:00,-1.0,-5.0,-100.00,SSW,210,4.0,7.0,85,-99.99,,,-99.99,,2013-01-14 12:03:00,
2013-01-14 06:12:00,-1.0,-5.0,-100.00,SSW,210,4.0,7.0,85,-99.99,,,-99.99,,2013-01-14 12:12:00,
2013-01-14 06:23:00,-1.0,-5.0,-100.00,SSW,210,4.0,7.0,85,-99.99,,,-99.99,,2013-01-14 12:23:00,
2013-01-14 06:33:00,-1.0,-4.0,-100.00,SSW,205,4.0,6.0,85,-99.99,,,-99.99,,2013-01-14 12:33:00,
2013-01-14 06:43:00,-1.0,-4.0,-100.00,SSW,205,4.0,6.0,85,-99.99,,,-99.99,,2013-01-14 12:43:00,
2013-01-14 06:53:00,-1.0,-4.0,-100.00,SSW,205,4.0,6.0,85,-99.99,,,-99.99,,2013-01-14 12:53:00,
2013-01-14 07:03:00,-1.0,-4.0,-100.00,SW,220,4.0,6.0,86,-99.99,,,-99.99,,2013-01-14 13:03:00,
2013-01-14 07:12:00,-1.0,-4.0,-100.00,SW,220,4.0,6.0,86,-99.99,,,-99.99,,2013-01-14 13:12:00,
2013-01-14 07:23:00,-1.0,-4.0,-100.00,SW,220,4.0,6.0,86,-99.99,,,-99.99,,2013-01-14 13:23:00,
2013-01-14 07:33:00,-2.0,-5.0,-100.00,SW,235,6.0,6.0,86,-99.99,,,-99.99,,2013-01-14 13:33:00,
2013-01-14 07:43:00,-2.0,-5.0,-100.00,SW,235,6.0,6.0,86,-99.99,,,-99.99,,2013-01-14 13:43:00,
2013-01-14 07:53:00,-2.0,-5.0,-100.00,SW,235,6.0,6.0,86,-99.99,,,-99.99,,2013-01-14 13:53:00,
2013-01-14 08:03:00,-3.0,-6.0,-100.00,WSW,240,7.0,7.0,86,-99.99,,,-99.99,,2013-01-14 14:03:00,
2013-01-14 08:13:00,-3.0,-6.0,-100.00,WSW,240,7.0,7.0,86,-99.99,,,-99.99,,2013-01-14 14:13:00,
2013-01-14 08:22:00,-3.0,-6.0,-100.00,WSW,240,7.0,7.0,86,-99.99,,,-99.99,,2013-01-14 14:22:00,
2013-01-14 08:33:00,-3.0,-6.0,-100.00,SW,220,6.0,6.0,86,-99.99,,,-99.99,,2013-01-14 14:33:00,
2013-01-14 08:43:00,-3.0,-6.0,-100.00,SW,220,6.0,6.0,86,-99.99,,,-99.99,,2013-01-14 14:43:00,
2013-01-14 08:53:00,-3.0,-6.0,-100.00,SW,220,6.0,6.0,86,-99.99,,,-99.99,,2013-01-14 14:53:00,
2013-01-14 09:03:00,-4.0,-7.0,-100.00,WSW,240,6.0,7.0,86,-99.99,,,-99.99,,2013-01-14 15:03:00,
2013-01-14 09:12:00,-4.0,-7.0,-100.00,WSW,240,6.0,7.0,86,-99.99,,,-99.99,,2013-01-14 15:12:00,
2013-01-14 09:23:00,-4.0,-7.0,-100.00,WSW,240,6.0,7.0,86,-99.99,,,-99.99,,2013-01-14 15:23:00,
2013-01-14 09:33:00,-2.0,-6.0,-100.00,WSW,245,7.0,9.0,84,-99.99,,,-99.99,,2013-01-14 15:33:00,
2013-01-14 09:43:00,-2.0,-6.0,-100.00,WSW,245,7.0,9.0,84,-99.99,,,-99.99,,2013-01-14 15:43:00,
2013-01-14 09:53:00,-2.0,-6.0,-100.00,WSW,245,7.0,9.0,84,-99.99,,,-99.99,,2013-01-14 15:53:00,
2013-01-14 10:03:00,-1.0,-5.0,-100.00,WSW,240,6.0,8.0,81,-99.99,,,-99.99,,2013-01-14 16:03:00,
2013-01-14 10:12:00,-1.0,-5.0,-100.00,WSW,240,6.0,8.0,81,-99.99,,,-99.99,,2013-01-14 16:12:00,
2013-01-14 10:23:00,-1.0,-5.0,-100.00,WSW,240,6.0,8.0,81,-99.99,,,-99.99,,2013-01-14 16:23:00,
2013-01-14 10:33:00,0.0,-5.0,-100.00,WSW,250,7.0,9.0,79,-99.99,,,-99.99,,2013-01-14 16:33:00,
2013-01-14 10:43:00,0.0,-5.0,-100.00,WSW,250,7.0,9.0,79,-99.99,,,-99.99,,2013-01-14 16:43:00,
2013-01-14 10:53:00,0.0,-5.0,-100.00,WSW,250,7.0,9.0,79,-99.99,,,-99.99,,2013-01-14 16:53:00,
2013-01-14 11:03:00,0.0,-5.0,-100.00,WSW,245,6.0,10.0,79,-99.99,,,-99.99,,2013-01-14 17:03:00,
2013-01-14 11:12:00,0.0,-5.0,-100.00,WSW,245,6.0,10.0,79,-99.99,,,-99.99,,2013-01-14 17:12:00,
2013-01-14 11:23:00,0.0,-5.0,-100.00,WSW,245,6.0,10.0,79,-99.99,,,-99.99,,2013-01-14 17:23:00,
2013-01-14 11:33:00,1.0,-4.0,-100.00,SW,235,5.0,7.0,79,-99.99,,,-99.99,,2013-01-14 17:33:00,
2013-01-14 11:43:00,1.0,-4.0,-100.00,SW,235,5.0,7.0,79,-99.99,,,-99.99,,2013-01-14 17:43:00,
2013-01-14 11:54:00,1.0,-4.0,-100.00,SW,235,5.0,7.0,79,-99.99,,,-99.99,,2013-01-14 17:54:00,
2013-01-14 12:03:00,2.0,-3.0,-100.00,SW,220,4.0,7.0,77,-99.99,,,-99.99,,2013-01-14 18:03:00,
2013-01-14 12:13:00,2.0,-3.0,-100.00,SW,220,4.0,7.0,77,-99.99,,,-99.99,,2013-01-14 18:13:00,
2013-01-14 12:23:00,2.0,-3.0,-100.00,SW,220,4.0,7.0,77,-99.99,,,-99.99,,2013-01-14 18:23:00,
2013-01-14 12:33:00,4.0,-3.0,-100.00,SW,215,4.0,7.0,75,-99.99,,,-99.99,,2013-01-14 18:33:00,
2013-01-14 12:43:00,4.0,-3.0,-100.00,SW,215,4.0,7.0,75,-99.99,,,-99.99,,2013-01-14 18:43:00,
2013-01-14 12:53:00,4.0,-3.0,-100.00,SW,215,4.0,7.0,75,-99.99,,,-99.99,,2013-01-14 18:53:00,
2013-01-14 13:03:00,5.0,-2.0,-100.00,SW,215,4.0,8.0,72,-99.99,,,-99.99,,2013-01-14 19:03:00,
2013-01-14 13:12:00,5.0,-2.0,-100.00,SW,215,4.0,8.0,72,-99.99,,,-99.99,,2013-01-14 19:12:00,
2013-01-14 13:22:00,5.0,-2.0,-100.00,SW,215,4.0,8.0,72,-99.99,,,-99.99,,2013-01-14 19:22:00,
2013-01-14 13:33:00,7.0,-1.0,-100.00,SW,215,5.0,7.0,71,-99.99,,,-99.99,,2013-01-14 19:33:00,
2013-01-14 13:43:00,7.0,-1.0,-100.00,SW,215,5.0,7.0,71,-99.99,,,-99.99,,2013-01-14 19:43:00,
2013-01-14 13:53:00,7.0,-1.0,-100.00,SW,215,5.0,7.0,71,-99.99,,,-99.99,,2013-01-14 19:53:00,
2013-01-14 14:03:00,8.0,0.0,-100.00,SSW,205,3.0,7.0,69,-99.99,,,-99.99,,2013-01-14 20:03:00,
2013-01-14 14:13:00,8.0,0.0,-100.00,SSW,205,3.0,7.0,69,-99.99,,,-99.99,,2013-01-14 20:13:00,
2013-01-14 14:22:00,8.0,0.0,-100.00,SSW,205,3.0,7.0,69,-99.99,,,-99.99,,2013-01-14 20:22:00,
2013-01-14 14:33:00,8.0,0.0,-100.00,SSW,205,3.0,7.0,69,-99.99,,,-99.99,,2013-01-14 20:33:00,
2013-01-14 15:03:00,9.0,0.0,-100.00,South,190,6.0,9.0,67,-99.99,,,-99.99,,2013-01-14 21:03:00,
2013-01-14 15:12:00,9.0,0.0,-100.00,South,190,6.0,9.0,67,-99.99,,,-99.99,,2013-01-14 21:12:00,
2013-01-14 15:23:00,9.0,0.0,-100.00,South,190,6.0,9.0,67,-99.99,,,-99.99,,2013-01-14 21:23:00,
2013-01-14 15:33:00,10.0,2.0,-100.00,SSW,195,3.0,9.0,69,-99.99,,,-99.99,,2013-01-14 21:33:00,
2013-01-14 15:43:00,10.0,2.0,-100.00,SSW,195,3.0,9.0,69,-99.99,,,-99.99,,2013-01-14 21:43:00,
2013-01-14 15:53:00,10.0,2.0,-100.00,SSW,195,3.0,9.0,69,-99.99,,,-99.99,,2013-01-14 21:53:00,
2013-01-14 16:03:00,9.0,0.0,-100.00,SSW,205,9.0,14.0,68,-99.99,,,-99.99,,2013-01-14 22:03:00,
2013-01-14 16:12:00,9.0,0.0,-100.00,SSW,205,9.0,14.0,68,-99.99,,,-99.99,,2013-01-14 22:12:00,
2013-01-14 16:23:00,9.0,0.0,-100.00,SSW,205,9.0,14.0,68,-99.99,,,-99.99,,2013-01-14 22:23:00,
2013-01-14 16:33:00,8.0,0.0,-100.00,SSW,195,7.0,13.0,70,-99.99,,,-99.99,,2013-01-14 22:33:00,
2013-01-14 16:43:00,8.0,0.0,-100.00,SSW,195,7.0,13.0,70,-99.99,,,-99.99,,2013-01-14 22:43:00,
2013-01-14 16:53:00,8.0,0.0,-100.00,SSW,195,7.0,13.0,70,-99.99,,,-99.99,,2013-01-14 22:53:00,
2013-01-14 17:03:00,7.0,0.0,-100.00,SSW,200,7.0,12.0,71,-99.99,,,-99.99,,2013-01-14 23:03:00,
2013-01-14 17:12:00,7.0,0.0,-100.00,SSW,200,7.0,12.0,71,-99.99,,,-99.99,,2013-01-14 23:12:00,
2013-01-14 17:23:00,7.0,0.0,-100.00,SSW,200,7.0,12.0,71,-99.99,,,-99.99,,2013-01-14 23:23:00,
2013-01-14 17:33:00,5.0,-1.0,-100.00,SSW,200,7.0,10.0,75,-99.99,,,-99.99,,2013-01-14 23:33:00,
2013-01-14 17:43:00,5.0,-1.0,-100.00,SSW,200,7.0,10.0,75,-99.99,,,-99.99,,2013-01-14 23:43:00,
2013-01-14 17:53:00,5.0,-1.0,-100.00,SSW,200,7.0,10.0,75,-99.99,,,-99.99,,2013-01-14 23:53:00,
2013-01-14 18:02:00,5.0,-1.0,-100.00,SSW,195,6.0,11.0,77,-99.99,,,-99.99,,2013-01-15 00:02:00,
2013-01-14 18:12:00,5.0,-1.0,-100.00,SSW,195,6.0,11.0,77,-99.99,,,-99.99,,2013-01-15 00:12:00,
2013-01-14 18:22:00,5.0,-1.0,-100.00,SSW,195,6.0,11.0,77,-99.99,,,-99.99,,2013-01-15 00:22:00,
2013-01-14 18:32:00,4.0,-1.0,-100.00,SSW,195,6.0,10.0,78,-99.99,,,-99.99,,2013-01-15 00:32:00,
2013-01-14 18:43:00,4.0,-1.0,-100.00,SSW,195,6.0,10.0,78,-99.99,,,-99.99,,2013-01-15 00:43:00,
2013-01-14 18:53:00,4.0,-1.0,-100.00,SSW,195,6.0,10.0,78,-99.99,,,-99.99,,2013-01-15 00:53:00,
2013-01-14 19:02:00,4.0,-1.0,-100.00,South,185,7.0,11.0,79,-99.99,,,-99.99,,2013-01-15 01:02:00,
2013-01-14 19:12:00,4.0,-1.0,-100.00,South,185,7.0,11.0,79,-99.99,,,-99.99,,2013-01-15 01:12:00,
2013-01-14 19:22:00,4.0,-1.0,-100.00,South,185,7.0,11.0,79,-99.99,,,-99.99,,2013-01-15 01:22:00,
2013-01-14 19:32:00,4.0,0.0,-100.00,South,185,9.0,12.0,81,-99.99,,,-99.99,,2013-01-15 01:32:00,
2013-01-14 19:43:00,4.0,0.0,-100.00,South,185,9.0,12.0,81,-99.99,,,-99.99,,2013-01-15 01:43:00,
2013-01-14 19:52:00,4.0,0.0,-100.00,South,185,9.0,12.0,81,-99.99,,,-99.99,,2013-01-15 01:52:00,
2013-01-14 20:02:00,4.0,0.0,-100.00,South,180,9.0,12.0,83,-99.99,,,-99.99,,2013-01-15 02:02:00,
2013-01-14 20:12:00,4.0,0.0,-100.00,South,180,9.0,12.0,83,-99.99,,,-99.99,,2013-01-15 02:12:00,
2013-01-14 20:22:00,4.0,0.0,-100.00,South,180,9.0,12.0,83,-99.99,,,-99.99,,2013-01-15 02:22:00,
2013-01-14 20:32:00,4.0,0.0,-100.00,South,180,9.0,12.0,83,-99.99,,,-99.99,,2013-01-15 02:32:00,
2013-01-14 21:02:00,2.0,-1.0,-100.00,South,190,6.0,9.0,86,-99.99,,,-99.99,,2013-01-15 03:02:00,
2013-01-14 21:12:00,2.0,-1.0,-100.00,South,190,6.0,9.0,86,-99.99,,,-99.99,,2013-01-15 03:12:00,
2013-01-14 21:22:00,2.0,-1.0,-100.00,South,190,6.0,9.0,86,-99.99,,,-99.99,,2013-01-15 03:22:00,
2013-01-14 21:33:00,1.0,-2.0,-100.00,SSW,195,5.0,9.0,86,-99.99,,,-99.99,,2013-01-15 03:33:00,
2013-01-14 21:43:00,1.0,-2.0,-100.00,SSW,195,5.0,9.0,86,-99.99,,,-99.99,,2013-01-15 03:43:00,
2013-01-14 21:53:00,1.0,-2.0,-100.00,SSW,195,5.0,9.0,86,-99.99,,,-99.99,,2013-01-15 03:53:00,
2013-01-14 22:02:00,0.0,-3.0,-100.00,SSW,195,5.0,7.0,87,-99.99,,,-99.99,,2013-01-15 04:02:00,
2013-01-14 22:12:00,0.0,-3.0,-100.00,SSW,195,5.0,7.0,87,-99.99,,,-99.99,,2013-01-15 04:12:00,
2013-01-14 22:22:00,0.0,-3.0,-100.00,SSW,195,5.0,7.0,87,-99.99,,,-99.99,,2013-01-15 04:22:00,
2013-01-14 22:32:00,0.0,-2.0,-100.00,SSW,205,6.0,9.0,88,-99.99,,,-99.99,,2013-01-15 04:32:00,
2013-01-14 22:42:00,0.0,-2.0,-100.00,SSW,205,6.0,9.0,88,-99.99,,,-99.99,,2013-01-15 04:42:00,
2013-01-14 22:52:00,0.0,-2.0,-100.00,SSW,205,6.0,9.0,88,-99.99,,,-99.99,,2013-01-15 04:52:00,
2013-01-14 23:03:00,1.0,-1.0,-100.00,South,190,7.0,10.0,89,-99.99,,,-99.99,,2013-01-15 05:03:00,
2013-01-14 23:12:00,1.0,-1.0,-100.00,South,190,7.0,10.0,89,-99.99,,,-99.99,,2013-01-15 05:12:00,
2013-01-14 23:22:00,1.0,-1.0,-100.00,South,190,7.0,10.0,89,-99.99,,,-99.99,,2013-01-15 05:22:00,
2013-01-14 23:33:00,2.0,-1.0,-100.00,South,185,8.0,11.0,89,-99.99,,,-99.99,,2013-01-15 05:33:00,
2013-01-14 23:42:00,2.0,-1.0,-100.00,South,185,8.0,11.0,89,-99.99,,,-99.99,,2013-01-15 05:42:00,
2013-01-14 23:53:00,2.0,-1.0,-100.00,South,185,8.0,11.0,89,-99.99,,,-99.99,,2013-01-15 05:53:00,